Theta_e
325 325 324 323 323 323 323 322 323 322 322 320 322 319 319 318 319 318 318 317 318 318 319 319 319 319 320 320 320 319 319 320 321 320 320 318 318 317 320 322 326 328 323 323 322 321 320 320 319 320 319 318 318 317 317 319 316 317 317 317 316 317 316 316 316 316 316 316 316 315 314 315 315 314 314 315 314 314 313 313 313 312 312 312 312
325 324 324 323 323 323 323 322 322 321 322 319 319 319 318 317 318 318 319 317 318 319 317 317 317 317 318 318 319 319 318 320 319 321 320 319 318 318 317 320 324 327 325 324 324 324 323 322 320 320 320 319 319 318 317 316 317 316 317 317 316 317 316 316 315 315 316 316 316 315 314 314 314 313 314 313 313 313 313 313 312 312 311 311 311
326 325 324 323 323 324 321 321 321 322 321 319 318 318 318 318 319 317 317 316 316 317 317 316 317 318 317 317 319 318 318 317 318 318 319 320 319 317 316 317 321 325 327 325 324 323 323 322 321 321 322 320 319 319 317 317 317 317 317 316 316 316 316 315 315 315 315 315 315 315 314 313 313 313 313 313 313 313 312 312 312 311 311 309 309
326 326 325 324 323 322 321 320 320 319 320 319 318 318 317 317 318 317 317 318 317 316 318 316 315 317 316 317 317 317 318 317 317 318 317 317 318 317 317 317 316 320 323 327 325 325 325 323 323 323 320 320 321 320 319 318 317 317 317 316 316 317 316 315 315 315 314 315 315 314 314 313 313 313 313 312 312 312 311 311 311 310 310 309 308
325 326 324 324 324 323 321 320 321 320 320 319 318 317 317 317 317 318 317 317 316 315 318 317 314 314 316 316 316 315 315 315 315 316 317 316 317 316 316 316 316 316 318 321 325 327 327 324 323 324 323 321 321 322 320 319 317 317 317 317 318 317 317 316 315 315 314 315 314 314 314 313 313 313 313 312 312 312 311 311 310 310 310 310 308
326 325 326 324 324 323 322 321 320 319 319 319 318 316 315 315 314 315 315 314 313 315 316 314 313 313 314 314 314 314 314 314 314 314 315 314 311 312 313 315 315 316 316 317 318 320 324 325 324 323 324 323 322 321 321 320 319 318 317 318 318 318 318 317 316 315 315 315 315 314 314 313 313 313 313 312 312 311 311 311 310 310 309 309 308
325 324 325 324 323 322 323 322 322 319 318 317 317 317 316 316 314 315 314 313 313 313 313 313 313 314 313 313 315 312 312 312 313 312 311 309 309 309 311 312 314 316 316 315 312 314 319 325 324 323 323 323 322 322 322 322 321 321 319 318 319 319 319 318 317 316 315 315 315 315 314 314 313 313 313 312 312 311 310 311 310 309 309 309 309
325 324 324 326 324 322 323 323 322 320 319 317 318 316 316 315 315 315 313 312 313 313 312 312 313 313 312 310 310 310 308 309 309 309 309 309 308 308 309 311 311 311 310 313 315 314 314 318 323 326 325 324 323 322 323 323 323 321 321 320 320 320 319 319 318 317 316 316 315 315 314 313 314 314 313 313 312 312 311 310 311 310 310 309 309
328 327 325 325 324 322 323 324 323 320 317 315 316 316 315 316 314 314 314 312 312 311 310 311 311 312 310 309 309 308 308 307 307 308 308 307 308 308 308 308 309 307 307 307 309 310 311 314 318 320 321 325 323 323 324 323 323 323 321 320 320 320 320 320 319 318 317 316 316 315 314 313 313 314 313 313 312 312 312 311 310 309 308 308 308
329 329 327 326 325 323 324 325 323 320 317 316 315 316 315 315 313 312 314 312 311 311 311 309 311 309 307 307 307 306 306 306 305 305 305 307 308 309 309 308 308 307 306 306 306 307 308 310 312 314 313 317 323 323 323 323 324 324 323 323 321 321 321 320 319 319 317 317 316 316 315 314 314 314 313 313 313 312 312 311 311 310 309 309 308
328 327 326 326 325 324 324 323 322 319 318 316 315 314 314 314 313 312 312 313 311 310 310 310 307 306 305 305 303 303 302 302 301 301 303 304 306 309 309 308 306 305 304 304 304 304 305 306 307 310 312 313 319 324 323 323 323 324 324 323 323 323 321 321 320 319 318 317 317 316 315 315 314 314 314 314 313 312 312 312 311 311 310 310 309
329 328 327 327 327 325 323 322 321 319 318 316 314 313 313 313 312 312 310 309 309 305 304 304 303 303 302 302 300 300 301 302 303 302 302 302 303 304 304 305 305 305 304 303 302 302 303 304 304 306 309 312 314 316 320 322 322 323 324 323 323 323 322 321 321 320 319 318 317 317 316 315 315 315 314 314 314 313 313 312 312 311 311 310 309
328 329 328 325 326 326 324 323 321 318 317 316 315 314 314 313 312 311 310 308 305 303 304 305 304 303 301 300 302 302 301 301 301 301 300 301 300 301 302 302 303 304 304 302 301 301 302 302 303 304 306 308 310 311 314 317 320 322 322 323 323 323 323 322 321 320 320 319 318 317 317 315 315 315 315 315 314 314 313 313 313 312 311 311 310
328 329 328 327 326 324 323 324 324 319 317 316 314 312 313 312 312 310 309 309 306 304 304 306 303 303 303 303 302 303 302 301 300 301 301 301 301 301 301 301 302 302 302 301 300 300 301 302 302 302 303 304 306 309 310 311 313 320 322 322 323 324 323 323 322 321 319 319 319 318 317 317 316 316 316 316 315 315 314 314 313 313 313 311 311
328 327 328 328 327 326 324 325 322 319 315 314 313 313 313 312 311 311 306 306 308 306 306 307 305 305 305 303 302 303 303 299 300 301 301 301 301 301 301 301 301 302 301 300 300 300 301 301 301 302 302 302 304 306 308 306 308 309 317 320 321 324 324 323 323 323 321 320 319 318 318 317 317 317 316 316 316 315 315 314 314 313 313 312 311
330 328 328 329 328 327 326 324 323 320 317 314 313 313 312 311 311 311 310 307 306 305 305 306 307 306 301 302 301 300 300 302 302 302 302 302 302 301 301 301 301 301 300 300 300 301 302 301 301 301 302 302 302 303 304 306 306 304 304 309 314 321 323 324 323 324 323 322 320 319 318 318 318 317 317 316 317 316 316 315 314 314 313 312 312
331 331 329 328 328 328 326 325 324 322 319 317 315 315 313 312 312 311 311 311 307 307 305 306 306 309 308 300 298 297 299 303 303 305 302 301 301 302 301 301 301 301 300 300 301 301 302 301 301 301 301 301 301 302 303 303 304 304 305 301 303 312 320 323 323 324 324 324 323 320 319 318 318 318 317 318 317 317 316 316 315 314 313 313 312
332 331 330 327 328 327 325 323 322 321 320 319 318 316 314 313 313 312 311 311 311 308 306 304 306 306 307 309 309 306 304 302 303 301 303 302 302 301 301 301 301 301 300 300 300 301 300 301 301 301 301 301 301 301 302 302 302 303 305 307 308 310 313 317 322 323 325 324 323 323 321 319 318 318 317 317 317 317 316 316 315 314 314 313 313
330 330 329 328 327 325 324 324 324 321 319 318 317 317 315 313 313 312 312 311 310 308 309 305 303 304 305 306 306 306 305 303 303 303 301 300 299 298 299 299 301 300 300 300 300 300 300 300 300 300 300 301 301 301 300 301 302 303 305 308 311 312 312 313 314 319 322 323 323 323 322 322 320 319 318 318 317 317 316 316 315 315 314 313 313
326 324 324 325 325 326 326 325 324 322 319 318 317 317 317 315 313 313 312 311 310 309 309 307 303 303 303 303 304 305 306 305 304 302 302 299 301 302 301 299 298 298 299 300 300 300 300 300 299 299 299 300 300 299 299 300 301 301 302 307 311 312 313 314 314 313 316 318 321 323 323 323 321 321 319 318 318 317 316 315 315 315 314 314 313
321 322 324 326 324 326 326 324 323 322 319 319 317 317 317 316 313 312 311 310 311 310 310 310 306 306 302 302 303 303 303 303 303 300 298 298 299 300 302 298 295 297 297 298 299 299 300 300 300 299 299 299 299 298 299 299 299 300 303 306 310 313 314 315 314 313 313 313 317 318 321 323 321 322 324 319 318 318 317 317 316 315 315 314 314
319 318 320 323 323 322 323 324 324 322 318 319 319 318 317 317 315 313 311 310 311 310 310 310 310 309 307 305 301 301 300 300 301 301 300 300 298 299 302 301 300 303 299 297 297 298 298 299 299 299 299 299 299 299 299 299 299 299 301 303 306 311 314 314 314 314 313 312 313 315 317 319 320 321 321 321 319 318 317 317 316 315 315 314 313
319 320 320 318 318 318 321 322 321 319 318 320 320 320 318 318 316 314 312 311 311 311 309 309 309 309 308 307 306 304 303 302 302 301 301 297 296 297 300 300 300 300 304 300 297 297 297 297 297 298 299 299 299 299 299 299 298 299 299 302 304 306 309 312 313 314 314 314 314 314 314 315 315 317 318 320 320 321 320 317 316 316 315 314 313
316 316 317 319 320 320 318 318 318 320 320 318 318 317 316 315 315 313 312 311 311 309 309 308 308 308 308 308 307 307 306 305 306 305 303 302 302 301 302 303 302 303 304 301 300 298 297 297 297 298 299 299 298 298 299 299 299 298 298 299 303 306 308 310 312 312 312 313 314 314 314 314 314 314 315 316 318 320 322 319 318 316 315 315 314
316 316 314 316 318 319 320 318 316 318 319 319 318 318 317 316 315 314 313 312 311 310 309 308 308 308 308 309 308 307 307 307 307 306 306 305 303 301 302 302 300 301 303 301 300 297 300 299 298 297 297 297 298 298 298 297 298 298 297 298 300 302 304 306 309 311 311 311 312 314 315 315 314 314 315 315 315 317 318 317 318 319 317 315 314
314 313 316 316 316 317 318 319 319 319 318 318 318 317 316 316 315 314 313 313 312 310 310 309 309 308 308 307 307 307 307 307 307 305 304 303 302 301 301 299 299 299 300 297 293 296 299 297 297 297 297 296 297 297 296 297 297 297 296 297 299 301 302 303 305 307 308 310 311 312 313 313 315 314 314 316 315 315 317 318 317 317 316 315 316
311 313 314 314 312 314 316 316 315 316 316 316 315 314 314 314 313 313 312 311 309 308 308 307 308 308 307 307 306 307 307 307 306 306 306 305 304 303 300 297 298 299 298 300 297 296 301 299 296 296 297 296 296 296 296 295 296 296 295 296 297 297 300 302 304 306 306 307 308 310 310 311 312 314 313 313 315 315 316 317 317 316 317 318 313
309 309 309 311 311 311 313 314 314 314 314 315 315 313 312 312 311 310 311 311 310 308 308 308 307 307 307 307 306 306 306 306 306 306 306 305 305 304 303 300 297 295 297 297 297 299 300 300 296 296 296 295 296 295 295 295 295 296 294 295 295 296 298 301 304 306 306 306 307 307 308 309 311 312 312 312 312 312 313 314 314 313 312 311 311
308 307 307 306 307 307 308 310 310 311 312 312 311 310 312 312 309 308 308 309 309 309 308 307 307 307 306 306 306 306 306 306 305 305 305 305 304 304 303 302 301 296 294 294 296 297 299 300 298 295 295 295 294 294 294 293 295 294 294 295 295 296 297 300 303 305 306 306 307 307 307 308 309 310 310 311 311 311 312 311 310 310 311 311 311
305 306 304 305 305 303 305 304 304 306 306 309 310 311 312 310 310 307 308 309 306 306 307 307 307 306 306 306 305 305 305 305 304 304 303 304 303 303 303 303 302 298 297 294 295 298 299 299 300 296 292 294 295 294 293 293 294 294 294 294 295 295 297 298 301 302 303 305 305 306 307 307 307 308 308 309 310 311 312 311 311 310 311 313 312
303 303 302 300 300 300 301 301 301 302 302 303 303 302 304 304 304 305 305 307 305 304 306 306 306 305 304 303 304 304 304 304 304 303 303 302 302 302 302 302 300 300 299 297 293 298 301 298 297 297 295 293 295 294 294 293 293 293 293 293 294 294 294 295 296 299 301 302 303 304 306 307 307 307 308 307 309 311 311 311 310 309 310 311 312
300 299 298 299 298 298 298 299 299 298 299 299 299 299 300 299 299 301 303 303 302 302 303 304 304 305 303 303 303 304 304 303 302 302 302 302 302 301 301 301 300 300 299 297 294 295 299 299 300 300 299 296 294 293 293 292 293 291 292 292 292 292 292 292 294 296 298 300 301 303 304 305 306 306 307 308 308 309 311 310 310 310 309 309 309
297 296 296 296 296 296 296 296 296 296 297 299 299 299 298 297 299 299 299 301 299 299 299 301 302 302 302 303 303 303 304 302 301 299 300 300 299 299 299 299 299 298 297 296 294 294 298 299 299 299 300 297 295 293 293 293 292 292 291 291 291 290 291 291 292 293 295 297 298 299 301 302 303 304 304 305 306 308 309 309 310 310 309 309 308
295 295 295 295 295 295 295 295 297 297 297 300 299 299 299 298 300 303 302 300 301 301 300 301 300 302 300 301 302 302 300 300 300 297 295 295 295 296 297 297 298 298 298 297 296 295 294 298 296 298 297 296 296 294 293 294 293 291 290 290 289 290 289 290 290 290 293 295 296 297 299 300 301 302 302 302 304 306 309 310 308 307 307 307 307
293 294 294 294 294 293 294 295 298 298 299 298 298 298 299 299 299 300 300 299 300 299 299 300 300 301 300 299 299 298 299 297 297 296 295 295 295 295 296 295 296 296 297 297 296 294 294 295 298 297 298 297 296 297 294 293 294 293 291 290 289 290 289 289 289 289 292 294 295 297 297 298 300 301 301 301 302 303 304 306 306 306 306 306 306
294 293 294 292 292 292 293 295 296 297 297 298 297 297 299 298 299 299 299 299 299 299 299 299 299 298 298 298 299 298 296 296 297 295 294 294 294 294 294 295 295 296 297 296 296 295 294 294 296 295 297 296 297 295 293 292 291 291 291 292 291 290 290 289 288 288 290 293 294 295 296 297 298 299 300 300 300 301 303 304 305 305 305 304 304
291 290 291 291 291 292 293 294 295 295 295 296 296 296 297 297 297 297 298 298 298 298 298 298 295 297 296 296 297 296 296 295 295 294 294 294 294 294 294 295 295 295 295 295 295 295 294 293 295 296 295 295 296 296 293 291 292 289 289 289 290 289 288 288 288 288 289 292 292 293 293 295 295 297 298 299 299 300 301 302 303 303 303 303 302
289 290 290 289 291 292 291 290 291 291 291 292 293 294 295 295 295 296 296 296 296 296 296 296 296 296 296 296 296 295 294 294 294 294 294 294 294 294 294 294 294 294 294 293 293 293 293 293 293 293 295 294 294 295 294 291 291 291 290 288 286 286 286 286 287 287 287 287 287 288 290 292 293 294 296 297 298 298 299 300 301 302 301 300 300
288 288 288 289 288 289 289 290 290 289 290 290 291 290 291 292 293 293 293 293 293 294 294 294 294 295 295 295 295 295 294 294 294 294 294 294 294 293 294 294 294 293 293 293 293 292 292 292 293 293 293 294 294 293 294 291 291 291 291 290 288 287 285 285 286 287 287 286 288 290 289 289 290 290 292 294 296 297 297 298 300 300 299 298 299
288 288 288 288 287 288 288 289 289 289 289 288 287 288 288 289 290 289 290 291 291 292 292 293 293 293 293 294 294 294 294 294 294 294 294 293 294 293 294 293 293 293 292 292 292 292 291 291 291 292 292 292 293 293 292 287 286 286 286 286 287 289 287 284 285 286 286 285 285 285 287 288 289 290 291 292 293 294 295 296 297 298 297 298 298
288 286 287 287 287 287 286 287 288 288 290 290 289 289 288 287 286 287 288 288 288 288 289 290 291 292 292 293 293 293 293 291 291 292 293 293 294 293 293 293 292 292 292 292 292 292 291 291 291 292 291 291 292 291 291 290 289 288 290 286 286 288 288 288 287 286 286 285 285 285 284 284 284 285 285 286 287 290 291 293 294 294 296 298 299
286 287 287 287 286 287 288 287 286 288 290 290 290 292 293 288 287 288 288 287 287 287 288 289 289 290 290 291 292 290 290 289 290 291 292 292 292 293 293 293 292 291 291 291 291 291 290 290 290 290 290 290 291 292 291 292 292 291 289 287 285 287 287 286 286 287 285 284 284 283 284 284 284 284 285 285 286 288 289 290 291 293 294 298 298
286 286 286 286 286 286 286 286 287 288 289 290 291 294 295 295 288 286 286 287 286 287 287 287 287 288 288 289 289 289 289 289 289 290 291 291 292 292 292 292 292 292 291 290 290 290 290 290 290 290 290 290 291 292 292 292 292 291 290 289 287 287 286 284 284 287 284 284 283 283 283 284 284 282 284 284 285 287 288 289 292 293 294 296 297
286 285 285 284 285 284 286 284 284 286 286 289 293 293 293 294 293 288 286 286 286 286 286 286 287 287 288 288 288 289 289 289 289 289 290 291 291 291 291 291 292 292 292 291 290 290 289 289 289 289 290 289 291 292 292 292 291 291 290 289 287 287 286 285 285 285 286 284 283 282 282 284 283 283 282 283 284 286 287 289 292 294 295 296 297
282 284 282 283 283 283 283 283 284 285 285 289 291 292 292 292 292 290 286 285 285 286 286 286 286 287 287 287 288 288 290 288 288 288 289 289 289 290 290 291 291 291 292 293 293 291 291 290 289 289 290 291 290 291 292 292 292 290 290 289 287 287 286 286 287 287 288 283 283 281 281 283 282 281 281 283 283 285 286 289 292 293 294 295 296
281 281 281 282 282 282 282 282 283 284 285 287 291 291 291 291 292 291 285 285 285 285 285 286 286 286 286 286 287 288 288 288 288 288 288 288 288 288 288 288 289 289 290 291 291 291 291 291 290 289 291 292 291 292 292 293 290 289 289 289 289 287 286 286 288 288 288 283 282 281 280 283 282 281 280 282 283 284 285 287 290 292 294 295 295
282 283 283 283 283 282 281 281 282 284 285 288 290 291 291 291 291 290 285 284 284 284 285 285 285 286 286 287 287 287 288 288 288 288 288 288 288 288 288 288 288 289 289 290 290 291 290 291 291 291 291 292 292 292 292 292 291 290 290 289 289 289 289 288 287 287 286 283 283 283 280 284 282 281 281 282 282 282 284 286 289 291 293 294 294
282 281 282 280 282 283 283 283 282 283 284 288 289 290 290 291 291 287 284 283 283 284 284 284 284 285 285 286 286 286 287 287 288 290 290 288 287 287 287 287 287 288 288 290 291 291 291 291 291 291 291 292 292 291 291 291 291 290 290 290 289 288 287 286 286 287 286 284 283 282 281 282 283 280 282 282 281 281 282 283 287 290 291 292 293
282 282 281 281 282 282 282 282 282 283 283 285 288 289 289 290 289 284 283 282 283 283 283 284 284 284 285 285 285 286 286 287 288 290 291 290 287 287 286 286 287 287 287 289 290 291 292 292 292 293 293 293 294 294 294 294 292 292 290 288 287 288 286 284 285 286 286 285 281 283 282 281 283 281 280 281 280 280 281 282 283 287 290 291 292
281 281 281 281 281 282 282 282 282 282 283 284 287 288 289 290 289 285 283 282 282 282 283 284 284 284 284 285 285 285 286 286 288 290 291 289 286 286 286 285 285 286 286 288 288 288 290 291 291 291 292 292 292 293 293 293 293 292 289 286 288 288 286 286 284 285 286 285 282 283 280 280 282 281 280 279 278 280 280 281 282 283 286 289 291
280 281 282 281 281 281 281 281 282 282 282 283 286 288 289 289 288 283 283 282 282 282 283 283 284 284 284 284 285 286 286 287 290 291 291 289 287 286 286 285 285 285 286 287 286 286 286 286 287 288 288 289 289 289 289 291 291 290 290 289 289 287 286 286 286 285 283 285 286 283 279 280 281 281 279 276 276 278 280 280 281 281 282 284 286
Wind_Speed
5 5 3 3 4 3 3 4 5 3 5 2 5 3 3 3 2 2 2 2 3 2 1 2 2 3 1 1 1 1 1 1 4 3 5 5 4 4 5 3 4 4 5 6 5 4 3 5 6 4 4 2 6 4 4 8 3 5 4 5 5 6 5 6 6 6 5 6 6 5 6 6 6 6 6 7 7 6 7 8 8 7 8 8 8
5 5 5 3 3 3 2 3 4 3 4 3 4 4 4 3 3 3 4 3 3 4 3 3 3 2 3 2 2 2 1 1 2 4 3 6 5 5 6 6 7 6 8 9 8 8 9 7 5 4 5 6 5 6 4 3 5 4 5 5 5 6 6 6 6 6 7 6 6 5 5 6 6 5 6 6 7 7 7 6 6 7 7 7 7
5 5 4 4 3 4 3 3 3 4 5 3 3 4 4 4 4 4 3 3 3 4 4 3 3 4 1 3 4 2 3 2 2 3 4 4 6 5 6 7 7 9 9 11 11 7 10 8 6 7 9 8 4 7 5 8 6 6 6 6 6 6 7 6 7 7 7 8 7 7 6 6 6 6 6 6 6 7 7 6 6 6 6 5 3
3 6 5 5 4 4 3 3 4 3 5 3 3 3 3 3 4 3 3 4 4 3 5 3 3 4 2 1 1 3 4 3 3 3 4 4 4 6 6 6 9 9 10 12 13 11 11 9 11 11 8 8 9 9 8 9 7 7 7 7 7 8 8 7 8 8 8 8 8 8 8 8 7 7 7 6 6 6 7 7 6 5 5 5 3
3 4 5 6 5 5 4 3 4 5 4 4 4 4 2 1 1 1 1 1 2 3 4 4 3 3 3 4 3 3 2 2 3 3 3 4 3 6 6 7 7 9 12 12 10 10 10 11 12 13 13 11 11 13 12 8 10 9 8 9 9 9 9 10 9 9 9 9 9 9 9 9 9 9 8 8 7 7 8 7 7 7 6 5 5
4 3 4 5 4 5 4 4 4 4 4 4 5 3 3 2 3 2 3 2 3 3 2 3 3 3 2 2 3 3 3 2 1 2 1 0 1 0 2 5 6 6 6 10 11 9 8 12 14 11 15 16 12 11 11 10 12 12 9 11 11 10 12 11 11 11 11 11 11 10 10 10 10 10 10 10 9 9 11 10 8 8 8 7 7
4 2 4 4 3 4 6 6 6 4 6 5 5 5 4 5 4 4 4 5 4 3 3 4 4 5 3 3 4 3 1 1 1 0 1 1 1 1 2 2 3 5 5 6 8 11 9 9 11 14 14 14 13 12 11 13 14 15 15 12 13 13 13 13 13 13 13 13 12 12 12 12 11 11 12 11 11 11 11 10 10 9 10 10 7
4 3 2 4 5 5 5 5 5 5 6 5 5 6 5 4 5 5 5 5 4 4 3 4 4 4 4 3 3 3 3 2 2 2 1 0 2 3 3 3 3 3 3 4 6 6 10 10 9 7 11 15 16 14 15 15 15 14 18 14 14 14 14 14 14 14 14 14 14 14 14 13 13 13 13 13 12 12 12 11 11 11 10 10 8
6 6 4 3 4 3 3 4 4 5 5 4 6 6 5 5 5 5 5 5 5 4 4 4 4 4 3 3 2 2 2 3 3 3 2 3 4 4 4 4 4 4 4 4 3 2 4 9 12 12 10 12 16 17 17 16 16 17 16 15 15 16 16 15 15 16 15 15 15 15 15 16 15 15 14 14 14 14 13 13 13 11 10 10 10
9 7 7 6 5 5 6 6 6 6 6 5 6 5 5 5 5 4 5 4 4 5 5 4 4 3 1 1 0 0 1 1 1 1 2 4 5 6 6 5 5 5 5 4 4 4 4 5 7 11 12 11 12 18 18 17 19 19 18 19 18 18 17 17 16 18 17 16 16 16 16 16 16 16 16 15 15 14 14 14 13 12 12 12 11
7 6 5 5 5 5 5 5 5 5 6 6 5 5 5 4 5 4 4 5 4 3 4 5 3 2 1 1 1 1 2 2 2 3 4 4 5 5 4 6 5 5 5 4 4 4 5 5 4 5 8 13 12 14 17 20 20 20 22 20 19 19 17 18 18 18 18 18 18 17 17 16 16 16 16 16 16 16 16 15 14 14 14 13 12
8 8 8 7 7 6 6 5 5 6 6 6 6 6 7 6 5 5 4 3 1 2 3 4 2 1 3 3 3 3 4 4 5 5 5 5 6 5 6 5 5 6 6 6 5 4 5 6 5 6 6 8 13 15 16 18 18 21 20 20 21 20 19 19 20 19 19 18 19 19 18 17 17 18 18 18 17 17 17 16 16 16 15 14 14
8 7 7 7 7 6 6 6 5 7 7 8 7 6 6 6 5 4 5 4 3 2 2 3 2 2 2 4 6 5 7 6 7 7 7 7 6 7 6 6 6 6 7 5 5 5 6 6 6 6 6 6 8 12 15 16 17 20 22 22 22 21 22 21 22 21 21 20 20 20 19 18 20 20 20 20 19 19 18 18 18 18 17 16 15
7 7 7 7 7 7 6 7 6 7 7 6 5 5 5 4 4 4 4 7 5 5 3 4 2 6 4 4 4 4 9 8 8 10 9 8 8 8 7 7 8 7 6 5 5 6 7 6 6 7 7 7 7 6 8 10 13 16 22 24 24 24 23 23 22 22 22 22 22 22 21 21 22 21 21 21 21 21 20 20 19 19 18 17 17
5 6 7 7 7 7 6 6 6 6 6 5 5 6 6 6 6 7 5 3 3 4 7 8 5 2 1 2 5 4 2 2 5 9 8 9 7 8 9 8 10 7 6 5 6 7 7 7 8 8 8 8 7 7 7 8 10 14 16 19 22 26 26 24 23 22 22 23 24 24 23 24 22 22 23 23 22 22 22 21 21 21 20 19 19
7 7 7 7 8 7 6 6 6 6 7 6 5 6 6 6 6 7 5 4 4 5 5 6 5 6 2 6 2 1 8 5 5 5 8 11 9 11 8 8 9 7 6 7 8 7 7 7 9 10 10 9 8 7 7 7 10 12 15 16 18 20 25 26 25 22 24 24 25 26 24 24 24 25 25 24 24 23 23 23 22 22 21 20 20
7 7 7 7 6 6 6 6 6 7 6 7 7 8 8 7 7 6 7 8 6 4 4 6 7 7 5 1 1 1 6 5 3 5 4 4 7 9 8 9 9 9 8 9 7 8 8 9 10 10 10 9 9 9 8 8 9 8 10 13 15 17 19 25 28 27 25 25 24 25 26 27 26 26 28 26 25 25 25 24 24 23 22 21 21
7 7 7 6 6 6 6 6 5 6 6 7 7 5 6 7 8 8 8 8 9 6 4 5 8 9 10 8 6 6 3 2 3 6 0 5 5 5 8 7 7 8 7 7 8 9 7 9 10 11 10 9 10 10 9 10 9 8 8 10 15 15 14 18 25 28 28 27 25 26 26 28 26 25 26 26 26 27 25 26 25 25 25 23 23
6 5 5 6 6 6 7 7 7 6 6 6 6 7 7 7 6 7 8 8 6 8 8 5 3 6 8 10 10 8 1 1 7 3 9 1 3 3 6 6 8 8 8 8 9 8 9 9 10 10 9 10 10 9 8 10 12 12 12 14 17 17 18 17 21 26 30 30 28 27 26 25 28 30 30 27 28 27 28 26 25 27 24 25 24
4 4 3 4 5 7 7 7 6 6 6 6 6 5 5 5 7 8 7 6 8 9 9 6 8 5 7 9 10 9 7 6 5 8 8 10 10 4 6 6 6 9 9 9 10 10 11 10 10 10 9 10 9 9 9 10 10 11 11 17 21 20 19 19 20 23 24 28 31 30 29 28 30 31 31 30 29 29 25 26 27 27 26 28 27
2 2 3 4 5 6 6 5 5 5 6 5 5 5 6 6 7 7 8 8 8 9 8 8 8 8 5 6 7 8 7 8 7 3 7 8 13 9 12 2 3 7 6 8 9 8 10 11 10 10 9 9 9 10 10 10 10 11 12 18 22 23 23 23 22 23 24 25 27 31 33 31 28 29 27 30 29 29 28 28 29 28 28 28 26
0 2 2 2 2 3 3 5 7 7 7 8 7 8 8 9 9 10 10 10 8 8 9 8 7 7 7 5 5 4 5 6 6 6 7 9 13 10 10 10 10 8 7 7 10 10 10 10 10 9 9 9 9 10 10 11 10 10 13 20 21 24 25 24 23 23 25 26 27 26 29 31 31 30 29 27 28 29 30 30 30 29 29 27 28
1 1 2 1 2 3 4 4 3 3 4 5 7 8 9 10 9 8 9 10 8 8 9 8 8 7 8 7 8 8 9 9 8 7 8 6 6 11 12 9 9 13 9 7 8 10 10 9 10 10 10 10 10 9 9 11 13 14 18 19 23 21 23 24 24 24 26 26 27 27 25 27 31 32 31 29 29 30 29 31 29 29 30 30 29
3 2 1 2 3 4 3 4 4 4 5 3 4 4 4 4 5 6 6 7 7 7 7 8 8 7 7 7 8 8 8 9 7 6 7 9 8 13 11 7 7 9 5 3 7 8 9 11 10 10 10 9 9 9 9 10 11 18 16 18 21 23 24 25 26 25 25 27 26 25 26 26 27 27 30 31 30 31 29 27 28 30 30 30 30
5 4 2 3 3 4 4 4 5 5 5 4 4 4 5 6 6 7 8 8 8 8 8 9 9 9 9 8 7 7 8 7 7 7 7 6 7 10 11 5 11 10 7 4 5 4 10 10 8 8 8 8 8 8 9 9 10 14 17 14 19 20 21 23 25 26 26 26 27 26 26 27 27 29 30 32 33 33 34 32 30 29 30 30 31
4 5 6 7 6 5 4 4 3 3 4 5 5 4 5 5 5 6 6 7 6 8 9 9 9 9 6 6 7 8 9 6 7 6 7 7 9 10 11 8 7 12 7 4 3 3 7 6 7 8 8 8 9 9 8 9 9 14 17 13 15 19 19 20 23 24 26 27 25 25 25 25 28 29 29 32 34 34 35 36 32 29 30 31 30
5 6 5 6 4 4 5 4 3 4 5 5 3 3 3 4 4 4 4 3 4 5 6 6 8 8 7 7 8 7 7 6 6 7 6 8 8 8 7 12 12 9 12 8 6 10 13 5 7 8 9 8 9 8 9 8 12 16 14 11 11 17 17 21 23 26 27 27 27 26 27 28 27 28 29 31 34 34 36 36 37 34 32 27 28
2 1 2 1 1 3 3 4 3 4 4 4 4 3 2 3 3 3 5 3 4 5 6 5 7 7 8 7 7 8 7 7 6 7 7 7 7 6 7 8 11 16 9 12 8 10 6 9 4 9 7 8 8 8 9 11 9 14 14 9 9 11 17 20 24 25 28 28 28 28 27 26 27 27 31 29 28 31 33 33 35 33 30 28 27
3 3 4 4 4 3 3 1 2 4 4 4 5 4 4 4 3 3 3 4 4 6 5 6 6 6 6 8 8 8 7 6 6 6 7 6 6 6 6 8 8 11 14 13 13 8 7 8 8 3 8 8 8 7 8 8 10 12 8 9 10 10 14 19 23 25 26 28 29 27 28 29 27 27 28 27 29 29 30 29 29 29 29 26 25
2 2 3 3 3 3 3 3 3 3 3 3 4 5 5 5 5 5 4 3 3 4 5 5 6 5 6 6 6 8 6 6 6 6 6 7 7 7 7 7 7 11 11 13 18 5 8 5 7 4 2 6 6 6 7 9 11 13 9 9 10 11 16 18 22 24 24 25 27 29 29 29 30 29 29 29 28 29 31 33 30 30 28 25 29
2 2 2 3 2 3 2 3 4 3 3 4 4 3 1 2 3 4 3 4 4 4 5 5 5 5 6 7 7 8 6 7 7 7 6 6 7 6 7 6 7 9 11 12 15 11 8 9 3 3 4 5 6 7 6 7 9 11 9 9 10 14 18 16 19 20 22 23 24 27 27 29 29 31 29 30 31 28 33 32 34 34 33 32 32
4 4 4 3 3 3 3 3 3 3 3 3 3 4 4 3 3 3 3 2 2 3 5 4 4 5 5 7 8 7 6 5 6 6 7 6 6 7 7 7 8 8 8 11 13 22 7 6 9 7 6 7 6 7 8 7 8 13 10 10 12 14 11 10 15 18 20 23 24 25 26 27 28 30 32 31 33 35 32 31 33 34 36 37 34
3 3 3 4 4 4 4 4 4 4 4 5 4 3 3 3 3 3 3 3 4 4 4 5 4 5 6 8 8 9 7 7 6 6 6 6 6 6 6 7 8 7 8 9 14 18 17 6 9 10 7 6 7 7 10 8 8 8 10 9 9 8 9 9 10 15 17 21 23 24 25 26 26 28 30 29 30 31 31 35 35 34 34 35 34
3 3 3 3 4 4 4 4 4 4 4 5 5 6 5 4 4 3 3 4 5 5 4 5 4 4 4 7 8 8 5 7 6 6 5 5 5 6 8 8 10 9 8 10 13 14 21 12 6 6 7 4 11 5 9 10 10 7 10 9 7 8 9 9 8 9 15 19 21 23 24 26 26 27 28 27 28 32 33 35 31 31 31 32 30
3 2 3 3 4 4 4 5 5 4 4 4 5 5 5 5 5 4 4 4 4 4 5 6 5 5 6 7 8 6 4 5 6 7 6 7 6 8 9 7 9 9 9 10 10 14 17 18 11 9 10 6 9 10 8 9 9 8 9 9 9 9 8 9 9 8 12 19 22 23 25 26 26 27 26 28 29 30 31 31 29 27 28 30 30
1 2 2 3 4 4 3 4 4 4 4 4 3 3 4 5 6 6 6 5 5 6 6 6 6 5 7 8 9 7 6 8 9 8 7 6 7 8 9 9 10 12 10 8 11 11 13 16 16 9 9 10 11 7 7 7 8 8 8 9 8 9 9 8 9 9 10 18 22 23 23 24 25 25 26 26 28 30 30 29 28 29 28 29 28
3 3 3 3 2 1 1 1 2 2 3 4 4 4 4 4 4 5 5 5 6 6 6 7 7 6 7 8 9 7 7 9 10 8 8 8 8 8 10 10 10 10 8 8 10 10 13 16 17 13 8 9 11 9 6 7 8 8 8 10 10 10 8 8 8 8 9 18 19 21 21 23 24 25 26 26 27 29 30 28 27 27 27 27 27
3 3 3 3 1 0 0 1 1 2 2 2 3 3 3 4 4 5 5 6 6 6 6 6 7 6 8 9 9 8 7 9 10 9 8 9 8 9 11 11 10 8 9 9 9 10 12 14 15 17 14 11 11 12 8 8 10 10 9 8 7 7 7 10 10 9 8 8 9 11 15 19 22 25 26 25 27 28 28 27 26 26 24 23 24
2 3 3 3 3 2 2 1 1 2 3 2 2 3 3 3 4 4 5 5 6 6 6 7 7 7 8 9 9 8 9 9 10 10 9 10 9 11 11 11 10 8 10 10 9 11 12 13 14 14 14 13 10 13 10 6 11 10 11 10 10 7 8 10 12 9 8 10 13 18 17 15 17 15 20 25 27 27 27 27 25 25 23 21 22
3 2 3 2 3 2 3 3 3 3 4 4 4 4 4 4 4 4 4 6 7 7 6 7 7 8 8 8 8 8 9 9 10 10 9 10 9 11 10 8 9 9 10 10 10 10 11 12 13 14 12 14 12 10 8 3 7 7 5 7 13 13 8 9 12 11 8 8 9 9 12 14 15 20 23 24 26 26 26 24 26 25 25 24 24
3 3 3 4 4 4 4 4 4 4 4 4 4 3 4 4 4 4 5 6 6 7 8 8 8 8 8 8 8 8 10 13 15 15 14 13 11 12 12 8 9 10 10 10 10 10 10 11 13 12 12 13 14 12 11 10 10 12 8 8 12 13 9 9 10 10 9 8 9 8 9 10 11 11 10 11 12 16 21 25 21 26 25 26 26
5 4 5 5 5 5 5 5 4 4 4 3 5 7 6 4 4 5 6 6 6 7 8 9 10 8 8 8 9 13 15 16 16 17 17 18 18 16 14 11 10 10 10 10 11 10 9 11 12 12 13 15 15 13 11 12 10 8 9 8 11 12 8 10 11 9 7 8 9 12 12 8 10 12 9 11 11 12 13 13 15 18 21 26 23
5 5 5 5 5 4 5 5 5 5 4 4 8 9 9 8 5 4 5 7 6 7 7 8 10 10 9 8 8 10 11 12 13 16 17 19 19 20 21 21 17 14 12 13 13 11 10 11 12 13 13 16 18 14 12 12 10 10 10 10 10 10 9 10 14 8 8 11 10 11 13 8 9 11 10 12 11 10 12 13 19 22 24 24 27
5 4 5 4 4 4 4 4 4 5 5 6 10 9 9 8 8 6 5 6 7 7 8 9 9 9 10 10 8 7 8 9 10 11 13 17 18 18 19 19 20 21 20 16 15 13 12 11 12 14 14 15 17 14 13 11 11 10 9 9 10 10 11 11 11 14 4 11 10 10 12 4 8 11 11 11 9 11 12 15 21 25 26 27 28
4 4 4 4 4 4 3 4 5 6 5 6 9 10 11 10 10 8 6 6 7 8 8 9 9 9 9 9 10 9 8 12 11 10 10 12 14 17 18 19 19 20 20 23 23 18 13 14 15 17 16 17 15 15 13 10 8 12 10 9 9 10 11 13 13 12 10 9 7 8 12 9 7 9 12 11 8 10 12 18 24 25 27 27 30
4 4 4 4 4 4 4 4 5 6 7 8 11 12 12 12 11 8 5 5 6 7 8 9 9 9 8 9 10 12 11 9 9 10 10 11 11 11 10 10 11 14 17 20 22 23 21 17 16 18 19 16 15 15 15 11 10 12 11 12 9 11 11 14 14 14 7 9 10 6 9 10 6 8 12 11 8 10 11 14 21 24 26 27 30
4 5 5 6 5 5 5 4 4 6 7 12 13 13 14 14 15 10 5 6 6 7 8 7 8 8 9 9 9 12 13 12 10 10 10 11 11 12 12 12 12 12 12 12 12 11 13 14 15 17 19 19 19 18 16 13 13 12 11 12 12 12 12 8 8 11 9 7 8 7 13 12 5 9 12 9 7 10 10 13 22 24 25 27 29
4 4 5 4 5 6 6 5 5 6 7 11 13 13 14 13 14 8 6 7 7 8 9 8 8 8 8 9 9 11 13 13 15 17 14 11 11 14 15 14 13 13 13 15 17 15 15 14 13 15 16 18 20 18 17 14 13 12 11 10 10 12 12 11 13 12 11 6 10 10 11 12 6 8 10 6 6 10 9 9 16 24 25 27 29
5 5 4 4 5 6 6 5 6 6 6 9 12 13 13 14 10 7 6 6 7 8 9 9 8 8 8 8 9 10 12 13 16 18 17 15 11 14 15 15 15 14 15 14 15 17 20 22 24 25 26 27 28 29 28 28 21 16 11 11 14 12 11 12 14 13 13 6 8 11 10 11 10 7 9 5 7 9 9 9 9 17 25 26 29
5 5 5 5 5 5 5 6 6 7 7 7 10 12 13 13 10 8 7 7 8 8 10 9 8 7 9 14 13 11 12 13 17 20 20 14 11 13 14 15 16 17 17 14 9 9 16 19 21 23 24 25 27 28 28 28 27 19 13 15 16 11 12 11 13 12 12 6 8 10 6 13 9 5 9 2 2 7 8 8 8 10 18 22 28
5 5 5 5 5 5 5 6 8 7 7 7 8 10 12 11 8 6 6 6 8 9 10 11 10 8 8 9 14 14 12 14 20 20 21 15 11 11 13 13 16 17 18 14 12 14 11 11 11 12 14 17 18 16 17 24 25 21 16 16 13 13 14 12 13 12 11 11 9 14 10 11 10 8 6 1 6 6 6 8 8 9 8 9 12
Wind_Direction
165 175 182 171 179 177 167 149 154 180 181 168 149 173 197 225 155 127 172 198 161 191 243 223 228 256 220 128 191 270 319 118 139 151 141 162 158 182 186 203 236 201 192 232 238 208 256 176 210 197 182 204 168 181 228 149 174 152 160 163 166 149 152 155 156 155 147 146 147 148 141 144 138 140 135 132 131 125 121 124 122 118 117 113 109
162 168 165 185 166 168 176 162 167 181 160 185 166 169 196 210 169 185 194 201 174 197 184 238 247 254 192 182 173 227 218 183 141 165 178 157 170 181 204 195 184 186 198 223 230 209 194 183 217 201 198 197 181 183 217 245 162 195 178 180 179 169 171 175 169 168 162 159 164 162 154 157 151 153 154 143 142 138 133 128 130 128 125 123 123
158 167 167 162 163 162 194 187 172 172 162 190 175 175 194 189 187 194 187 192 207 195 171 229 220 256 229 163 190 204 241 207 193 179 189 177 171 176 192 206 205 188 204 222 243 231 219 256 192 225 198 220 193 189 197 223 198 203 196 200 196 187 182 186 184 181 178 177 175 177 171 169 165 168 167 166 155 151 151 146 137 137 134 134 136
183 174 163 162 164 165 198 199 188 181 163 182 170 186 198 201 186 188 200 188 211 182 183 231 234 225 252 241 203 204 232 220 208 207 207 210 165 180 182 194 214 219 217 220 228 236 255 227 232 220 222 259 212 211 213 219 254 210 209 211 210 203 197 199 199 194 192 190 184 184 191 174 177 178 180 179 178 177 161 164 155 143 142 141 135
251 180 165 160 164 170 190 207 187 176 169 176 165 179 221 195 148 90 329 267 228 206 181 216 248 242 208 218 211 267 260 225 223 214 217 217 212 185 188 194 200 220 226 226 233 250 267 230 219 203 215 213 221 203 197 208 217 250 211 217 216 209 208 207 205 203 207 199 200 199 197 196 187 186 187 183 184 190 186 171 174 162 160 166 161
248 222 164 158 162 164 182 210 190 173 169 164 157 170 199 182 168 146 251 246 249 250 197 225 265 264 203 180 177 233 258 282 297 264 295 30 43 36 239 209 200 207 224 236 240 250 251 263 233 227 213 214 237 237 243 221 216 224 231 222 220 216 207 211 210 207 212 207 204 200 203 205 203 197 196 199 193 197 205 187 192 184 182 185 180
255 220 184 169 184 182 186 199 184 171 166 167 166 186 189 193 171 180 222 230 229 233 208 203 221 249 230 185 202 216 154 205 228 228 335 6 10 349 345 322 262 225 218 222 242 245 251 259 240 222 239 247 251 257 239 234 226 218 210 213 230 226 214 214 219 215 214 215 211 208 208 204 209 209 204 206 205 206 218 195 202 209 200 200 197
265 269 208 194 191 196 213 175 176 167 168 166 169 189 202 200 198 177 199 222 210 244 220 212 220 232 220 173 186 186 178 215 223 213 205 195 256 253 264 259 280 294 292 247 233 235 237 245 251 248 250 239 237 235 230 229 233 230 228 229 231 234 228 219 218 224 221 217 215 212 209 212 211 214 210 210 210 210 212 215 203 208 208 205 187
224 245 251 219 200 184 214 176 173 167 170 172 187 199 190 199 209 199 186 199 200 217 231 211 227 230 184 158 179 158 199 215 213 207 187 210 233 238 241 243 244 259 264 275 265 287 270 257 244 241 252 258 234 233 243 249 231 232 238 238 235 235 234 225 218 219 222 221 218 219 218 218 217 217 216 216 215 212 213 215 218 221 225 215 213
205 214 217 220 208 197 204 201 185 174 177 181 198 204 203 188 208 214 201 204 203 202 217 211 212 198 161 164 180 122 287 298 279 264 204 223 224 231 231 235 239 247 254 264 284 294 283 294 287 255 241 246 249 236 241 243 237 237 231 236 242 235 231 232 225 222 225 222 221 221 223 222 221 221 222 218 218 216 216 215 216 217 220 222 219
202 202 212 221 226 216 209 207 182 179 178 194 201 203 213 205 193 212 204 203 207 214 201 190 161 119 129 178 174 253 282 286 293 272 254 241 236 238 224 235 232 235 238 242 253 264 278 279 281 279 253 241 241 246 242 244 255 254 241 242 239 242 238 229 227 226 227 223 223 223 223 224 223 223 224 224 222 220 220 218 218 216 215 218 220
196 201 205 209 215 214 210 207 190 180 185 191 207 204 206 205 206 188 191 224 206 91 99 107 81 106 243 275 259 253 255 253 255 245 247 244 243 242 236 234 228 237 233 227 225 240 252 258 260 259 268 261 247 241 244 246 246 243 245 239 241 246 243 230 228 228 229 230 223 222 223 221 224 224 224 223 223 223 222 221 220 220 218 216 219
194 196 203 204 209 210 209 214 192 187 185 201 202 208 206 200 194 182 176 184 217 137 101 105 108 297 259 267 278 240 236 228 237 240 235 238 241 239 239 236 236 234 235 229 228 229 241 248 253 260 264 265 266 254 247 248 248 239 235 240 243 240 241 239 235 230 227 224 226 227 224 219 224 225 226 226 224 224 224 223 222 221 222 217 219
192 200 207 204 206 209 207 211 199 193 199 201 200 204 201 195 179 205 205 189 211 175 173 117 258 230 266 313 281 253 230 218 230 238 232 231 227 231 234 232 235 232 232 227 233 232 236 234 241 248 250 253 258 261 252 244 243 240 234 238 243 247 244 242 243 238 233 228 224 223 220 219 221 224 227 227 227 225 224 225 224 223 221 220 218
206 200 205 208 207 205 212 217 198 188 191 204 202 206 199 192 187 192 216 224 185 175 184 186 220 129 173 349 282 318 321 293 254 249 235 234 227 232 231 231 236 232 226 225 234 237 237 234 238 237 242 244 247 252 257 252 240 235 238 238 240 242 246 248 244 238 236 231 230 226 224 225 224 223 225 226 227 227 225 225 226 223 222 223 223
213 210 211 213 207 205 207 212 205 184 192 202 206 215 204 202 194 203 176 207 218 227 190 187 187 121 283 217 237 102 301 262 249 251 214 225 219 229 226 231 234 231 216 226 232 233 237 235 238 237 236 236 238 243 250 256 262 252 243 244 240 241 244 250 252 243 238 236 230 232 230 225 224 226 227 226 227 229 228 227 227 226 224 225 225
216 213 206 211 208 211 218 215 205 200 192 203 211 213 206 200 195 196 192 203 224 223 201 184 202 208 199 109 305 272 229 278 338 266 178 218 233 230 227 226 230 226 214 229 231 232 235 236 239 240 240 235 233 234 239 248 256 257 254 246 247 242 240 243 250 251 244 241 239 233 227 229 231 230 224 225 227 229 230 229 226 225 227 227 228
219 214 211 204 213 217 219 214 206 204 198 204 209 198 198 196 198 200 211 212 220 217 214 199 208 214 230 240 225 249 255 226 31 298 327 212 229 219 229 226 231 234 227 234 232 237 231 238 237 239 239 238 237 233 228 233 241 246 247 248 241 241 240 243 247 249 250 246 244 241 237 239 237 234 230 229 228 231 231 230 229 228 227 225 225
203 202 208 204 211 216 216 213 209 199 196 198 201 201 200 203 200 205 215 216 210 231 228 201 198 234 228 242 262 268 208 270 256 315 296 297 276 240 245 221 226 229 230 230 230 234 237 234 240 239 239 239 238 238 237 237 235 237 240 246 248 245 241 240 245 249 249 251 248 247 245 235 231 231 237 238 234 232 231 231 229 230 230 230 230
203 216 217 211 212 222 219 217 215 208 191 205 210 211 206 204 204 213 220 212 211 220 227 196 188 225 200 232 244 262 264 261 249 244 272 290 279 259 235 218 220 234 222 226 227 229 236 235 236 235 235 235 232 230 234 235 237 237 237 241 245 246 244 239 237 242 247 249 252 251 249 243 242 246 243 239 235 235 235 233 232 232 230 228 228
136 166 189 215 225 234 226 219 208 201 190 205 207 208 220 222 214 214 216 219 216 223 226 221 201 224 164 226 232 244 251 246 258 189 236 263 273 263 271 211 244 257 242 228 236 234 234 238 235 233 232 234 228 229 231 232 236 237 238 237 240 241 242 242 239 238 240 243 246 250 253 254 249 248 247 242 237 237 232 230 229 231 232 228 228
184 170 185 209 203 217 250 231 213 207 202 206 207 210 216 222 219 213 214 218 215 214 219 225 217 221 210 195 200 224 239 260 242 229 243 228 259 268 266 271 271 258 218 226 234 235 239 238 240 237 234 233 231 228 227 230 232 233 237 238 239 240 240 240 240 238 237 239 241 242 245 249 255 255 250 245 241 237 237 232 230 232 232 232 230
122 300 291 255 211 203 223 249 262 262 250 250 235 219 212 215 219 215 212 212 213 215 221 228 227 228 224 216 224 213 226 235 235 214 225 242 253 261 265 251 254 273 259 221 223 233 234 231 235 236 232 230 233 229 227 230 231 234 236 237 241 242 245 243 241 239 240 240 239 239 239 243 248 253 256 251 243 240 238 239 237 233 233 231 230
307 283 234 235 265 268 248 244 252 257 255 236 237 237 234 226 224 216 219 219 222 219 224 230 230 239 244 232 233 229 235 241 245 228 218 242 241 265 270 286 268 253 271 213 225 230 234 233 229 233 231 233 232 230 232 234 235 236 237 239 242 242 242 244 244 243 243 243 241 238 237 238 240 245 251 254 253 246 241 238 237 236 235 232 230
263 249 250 269 275 276 273 264 258 247 251 247 241 231 230 224 221 223 221 219 214 215 220 226 220 225 231 233 238 237 241 237 241 245 253 260 254 273 272 278 276 280 274 243 256 234 234 238 228 230 233 231 234 228 230 231 237 237 234 240 239 243 244 246 249 248 247 246 246 243 239 238 239 241 242 246 249 253 248 241 238 237 236 235 235
221 221 223 221 214 216 231 260 265 264 251 248 244 235 230 228 231 235 232 230 220 221 228 231 232 236 239 239 234 237 244 237 240 242 249 257 263 264 283 276 264 280 278 251 241 251 255 225 231 228 228 226 232 228 230 233 238 242 237 235 240 241 240 241 244 247 249 249 248 247 247 243 241 240 241 242 243 246 251 248 241 242 242 237 236
218 237 236 215 213 211 197 203 253 310 329 317 286 254 240 244 242 244 250 239 231 230 238 237 242 243 238 236 244 243 246 240 234 243 237 242 250 261 272 291 286 265 281 263 247 221 260 247 207 231 227 226 228 230 231 231 237 241 241 239 244 244 241 241 243 245 246 247 247 247 246 246 244 243 241 242 243 244 245 250 245 243 246 242 236
257 5 17 99 205 217 217 224 214 208 216 254 290 296 265 248 255 249 255 234 239 240 244 240 248 250 249 248 250 252 248 246 239 245 243 245 248 254 256 267 285 294 276 278 266 271 188 252 226 223 223 221 228 228 228 234 242 243 242 240 240 244 243 241 244 246 248 249 248 247 247 248 249 248 245 242 242 243 246 247 249 244 242 245 240
4 23 10 10 14 12 358 329 212 225 235 223 218 232 245 241 243 250 254 240 234 243 243 239 245 245 246 246 246 254 252 252 252 252 251 249 249 252 245 253 263 277 292 289 272 256 257 194 265 243 210 220 227 222 230 228 237 239 236 233 236 239 242 241 243 246 248 248 249 250 248 247 246 248 248 245 243 242 241 242 245 242 235 239 242
46 13 9 355 351 347 346 325 318 323 287 258 239 228 218 218 218 224 221 218 242 260 256 251 251 248 253 257 252 258 258 255 251 248 242 242 245 244 247 245 236 252 270 283 287 211 264 192 221 257 227 232 230 233 222 234 235 236 237 236 238 238 238 236 241 245 248 251 252 252 252 252 249 246 246 247 245 242 241 240 238 238 235 223 226
25 13 12 9 3 344 336 318 325 320 322 320 321 314 286 262 263 248 235 207 219 244 250 248 259 253 256 255 252 255 251 251 250 248 243 238 244 246 248 247 245 244 260 272 284 284 154 261 233 233 225 227 223 231 230 234 237 235 238 238 239 239 239 243 245 248 249 251 253 253 253 254 254 253 250 247 247 246 243 240 239 240 239 234 227
24 27 25 7 347 341 329 340 331 326 323 310 327 326 331 320 303 291 276 263 251 245 251 230 234 238 252 260 259 259 257 254 253 252 249 240 240 243 242 243 248 239 252 262 262 276 253 276 280 267 253 250 228 226 240 235 231 227 233 231 237 241 245 245 246 244 245 248 251 252 252 253 254 256 255 253 249 247 249 246 244 241 240 241 238
23 15 22 17 16 5 2 2 3 353 349 336 329 330 329 318 312 304 307 316 303 290 278 269 253 243 244 251 253 251 247 247 244 248 247 251 248 250 246 249 251 238 235 251 263 275 284 230 262 271 260 238 258 204 241 236 236 234 234 238 238 237 239 240 241 241 242 246 248 249 250 252 253 254 254 255 256 253 250 249 246 242 239 239 238
32 13 31 32 21 14 6 1 7 5 359 356 353 0 349 342 328 317 303 289 278 274 273 275 274 266 260 260 263 264 255 251 254 253 246 252 247 251 246 238 244 241 221 243 257 269 279 283 238 274 266 223 266 208 231 250 247 236 240 237 234 229 236 238 242 242 236 242 247 249 250 252 252 252 253 255 257 258 257 253 249 247 243 241 236
2 29 23 41 41 27 18 7 5 4 357 349 346 349 345 344 335 325 325 321 305 299 293 280 279 286 287 283 280 280 282 277 265 263 256 253 248 247 251 240 248 247 237 233 251 263 272 279 278 271 275 258 246 263 238 240 249 235 240 238 233 236 231 235 237 242 234 240 244 245 247 248 249 252 252 254 255 256 256 255 254 250 245 239 231
351 330 29 63 57 48 28 7 358 349 342 325 321 321 318 322 319 314 315 312 306 300 294 291 288 283 273 276 273 280 283 281 277 272 259 248 245 247 250 247 246 251 243 239 237 253 271 282 281 265 270 279 267 253 247 248 240 241 235 247 238 240 239 230 233 242 236 239 243 245 247 250 252 252 253 254 254 256 257 254 250 249 243 236 225
14 24 4 49 72 79 77 13 321 325 322 333 337 334 327 324 316 313 313 310 305 298 291 290 290 290 288 279 285 285 281 275 275 269 270 260 255 253 253 253 250 253 249 239 243 244 257 267 277 278 262 261 271 270 238 248 256 247 245 245 242 242 243 240 240 238 240 245 246 248 249 251 251 252 252 251 252 254 256 257 253 246 239 228 221
1 15 38 8 39 315 222 231 226 254 263 269 275 279 284 291 292 291 288 286 287 288 288 287 285 280 277 279 280 282 278 272 275 276 272 267 265 257 258 260 257 257 255 249 244 248 251 260 269 281 280 268 273 271 242 228 256 264 259 245 250 241 237 251 241 240 238 235 240 245 248 251 251 252 253 252 252 252 253 254 252 243 234 225 219
42 23 11 22 350 26 334 347 297 277 285 288 292 298 305 307 305 307 305 301 294 291 284 280 278 274 272 273 275 273 274 272 275 276 278 275 267 266 262 265 266 260 261 258 250 250 251 259 266 266 277 276 268 274 272 211 243 246 259 274 264 232 223 238 254 242 230 244 246 246 247 242 248 250 251 251 252 252 252 253 253 247 234 225 221
37 28 10 15 333 359 327 332 311 315 319 321 317 311 305 300 303 298 298 295 293 288 284 278 275 273 271 270 270 269 266 267 268 273 272 274 275 272 269 266 270 266 264 265 260 255 256 259 262 271 267 276 278 261 272 260 266 264 235 242 262 267 235 231 235 246 235 224 243 244 246 251 251 249 250 251 251 251 252 252 251 248 235 221 217
18 17 12 15 6 357 352 349 340 336 333 314 296 290 294 300 303 301 298 298 298 299 296 292 285 281 278 273 271 268 262 261 260 260 263 263 271 277 273 264 266 268 267 265 264 260 261 262 268 267 273 273 270 274 271 260 248 258 251 206 248 259 264 264 251 226 229 226 240 244 243 226 242 245 239 246 246 245 248 245 247 248 239 226 220
13 5 10 4 11 360 352 345 344 338 322 308 299 291 283 275 287 292 295 290 289 286 290 292 290 282 278 276 273 267 268 268 266 265 263 261 256 254 266 272 267 267 268 269 266 263 262 263 264 272 273 270 272 268 268 263 265 254 252 233 245 258 259 258 268 244 195 213 232 245 244 222 227 245 237 243 242 231 241 237 236 237 236 230 220
8 359 3 0 356 350 345 336 332 326 316 308 302 302 301 293 282 282 284 290 287 285 282 284 286 292 288 280 278 278 274 272 271 267 265 264 261 258 257 257 255 256 267 267 266 263 259 260 268 267 264 270 271 272 266 270 265 257 250 243 244 255 251 260 271 273 175 194 218 243 253 217 205 239 240 239 240 233 237 238 237 236 236 231 225
358 358 0 348 341 341 339 338 328 316 314 312 313 316 316 313 305 288 277 279 285 281 282 281 283 286 289 290 285 279 273 270 270 273 270 265 262 261 259 258 256 252 247 249 262 268 261 264 264 263 267 263 270 273 271 270 270 264 251 244 241 242 248 248 253 263 227 181 211 231 256 204 193 228 241 241 233 236 237 240 239 238 236 233 229
360 9 339 352 338 343 356 339 325 318 314 315 319 317 315 311 305 296 277 270 274 278 277 278 280 284 288 291 293 286 277 274 273 269 270 276 274 268 264 263 259 254 251 249 247 249 260 260 262 266 261 267 271 270 268 270 267 269 262 252 242 241 242 248 253 262 252 185 199 231 253 241 185 221 241 241 226 235 240 240 240 239 237 235 232
4 345 340 341 337 342 339 332 322 319 314 315 317 315 313 311 309 306 281 279 274 273 275 278 280 284 284 286 290 290 288 279 269 272 275 275 278 280 275 266 262 258 253 248 248 248 246 249 253 259 264 266 265 269 275 276 273 268 269 264 255 251 244 245 250 254 257 146 200 217 259 253 184 215 242 242 217 233 236 235 237 237 236 236 234
357 347 342 342 334 331 329 327 321 313 304 306 312 312 313 313 312 317 301 295 288 282 279 275 277 278 281 279 276 279 284 285 277 269 274 279 283 280 276 275 269 266 262 259 249 243 244 244 248 254 262 266 268 270 272 270 264 263 262 266 266 265 266 271 270 257 253 188 196 189 249 258 161 215 240 238 219 233 232 233 234 234 234 235 234
348 347 334 337 325 319 311 312 306 292 288 292 297 298 299 299 304 307 303 296 293 289 286 284 277 275 273 273 275 277 278 280 279 278 274 275 279 280 280 277 276 270 265 256 252 246 247 248 245 249 254 259 264 266 265 266 266 265 264 263 264 263 265 264 263 264 255 202 187 202 242 257 206 212 249 227 212 235 231 228 231 233 233 233 234
338 330 311 301 291 291 290 290 288 281 282 284 287 290 292 296 300 298 295 291 288 286 284 284 280 276 272 266 267 271 278 280 282 285 285 284 277 278 278 279 278 279 274 272 260 253 251 250 252 253 255 258 261 263 265 264 263 263 268 263 258 254 254 255 258 262 261 210 198 206 227 255 241 210 245 231 211 233 232 227 227 230 232 232 234
316 298 291 286 282 277 283 284 276 283 287 286 287 292 293 292 290 292 295 297 291 291 290 287 284 276 272 273 269 272 278 283 288 291 291 289 281 278 279 280 283 282 280 279 286 266 253 254 254 256 257 259 260 263 265 264 263 260 254 253 258 262 256 249 257 256 266 228 214 184 201 235 246 191 234 235 233 237 232 230 224 227 230 233 234
281 281 281 287 289 287 276 274 278 278 287 296 297 294 297 296 296 288 289 292 297 298 301 301 300 293 286 282 281 280 279 282 288 293 297 298 288 283 283 282 281 280 280 293 295 290 287 280 268 263 263 260 263 262 262 262 261 257 248 251 257 250 252 254 254 261 265 255 221 165 207 240 232 223 183 165 248 239 206 225 221 220 218 217 231